Flag for Norway Weather past 2 weeks in Ålesund, Norway

52 °F


Feels Like: 49 °F
Forecast: 48 / 54 °F
Wind: 8 mph from Southwest

Location: Alesund / Vigra

Current Time: Oct 14, 2015 at 1:09:18 AM

Latest Report: Oct 14, 2015 at 12:20 AM

Visibility: N/A

Pressure: 30.36 "Hg

Humidity: 72%

Dew point: 43 °F

Location of ÅlesundLocation

Historic Weather in Ålesund — Graph


Ålesund temperature yesterday

Maximum temperature yesterday: 54 °F (at 4:20 PM)
Minimum temperature yesterday: 45 °F (at 12:20 AM)
Average temperature yesterday: 51 °F

Past Weeks' High & Low Weather Summary

High63 °F (Sep 29, 11:50 AM)100% (Sep 30, 12:50 AM)30.51 "Hg (Sep 30, 12:50 AM)
Low41 °F (Oct 12, 8:50 PM)41% (Oct 7, 8:20 AM)29.80 "Hg (Oct 3, 6:20 PM)
Average53 °F75%30.15 "Hg
* Reported Sep 28 11:50 PM — Oct 13 11:20 PM, Ålesund, Weather by CustomWeather, © 2015

Note: Actual official high and low records may vary slightly from our data, if they occured in-between our weather recording intervals... More about our weather records


Ålesund weather history for previous 24 hours

Time TempWeatherWind HumidityBarometerVisibility
11:20 PM
Tue, Oct 13
52 °FOvercast.8 mph67%30.36 "HgN/A
10:50 PM52 °FPassing clouds.8 mph67%30.36 "HgN/A
10:20 PM52 °FPassing clouds.12 mph72%30.36 "HgN/A
9:50 PM52 °FPassing clouds.13 mph72%30.36 "HgN/A
9:20 PM52 °FPassing clouds.9 mph72%30.36 "HgN/A
8:20 PM52 °FPartly cloudy.15 mph67%30.36 "HgN/A
7:50 PM52 °FPartly cloudy.10 mph72%30.36 "HgN/A
7:20 PM52 °FBroken clouds.8 mph72%30.36 "HgN/A
6:20 PM52 °FPartly sunny.9 mph72%30.36 "HgN/A
5:50 PM54 °FScattered clouds.9 mph63%30.36 "HgN/A
5:20 PM54 °FScattered clouds.9 mph67%30.36 "HgN/A
4:50 PM54 °FScattered clouds.12 mph67%30.36 "HgN/A
4:20 PM54 °FBroken clouds.10 mph72%30.36 "HgN/A
3:50 PM52 °FScattered clouds.13 mph77%30.36 "HgN/A
3:20 PM52 °FBroken clouds.15 mph72%30.39 "HgN/A
2:50 PM52 °FScattered showers. Broken clouds.12 mph77%30.39 "HgN/A
2:20 PM52 °FLight rain. Broken clouds.15 mph72%30.39 "HgN/A
1:50 PM52 °FPartly sunny.12 mph72%30.39 "HgN/A
1:20 PM52 °FScattered showers. Broken clouds.15 mph72%30.36 "HgN/A
12:50 PM52 °FSprinkles. Partly sunny.15 mph72%30.36 "HgN/A
12:20 PM52 °FScattered showers. Broken clouds.13 mph72%30.36 "HgN/A
11:50 AM52 °FBroken clouds.12 mph67%30.36 "HgN/A
11:20 AM52 °FLight rain. Partly sunny.9 mph67%30.36 "HgN/A
10:50 AM52 °FPartly sunny.9 mph67%30.36 "HgN/A
10:20 AM52 °FPartly sunny.13 mph67%30.36 "HgN/A
9:50 AM52 °FPartly sunny.12 mph67%30.36 "HgN/A
9:20 AM52 °FPartly sunny.9 mph67%30.36 "HgN/A
8:50 AM52 °FPartly cloudy.8 mph67%30.36 "HgN/A
8:20 AM52 °FPassing clouds.10 mph67%30.36 "HgN/A
7:50 AM52 °FPassing clouds.10 mph67%30.36 "HgN/A
7:20 AM50 °FPartly cloudy.9 mph71%30.36 "HgN/A
6:50 AM52 °FPartly cloudy.10 mph67%30.33 "HgN/A
6:20 AM50 °FPassing clouds.9 mph71%30.33 "HgN/A
5:50 AM52 °FPassing clouds.8 mph67%30.36 "HgN/A
5:20 AM52 °FOvercast.7 mph67%30.36 "HgN/A
4:50 AM50 °FOvercast.7 mph71%30.36 "HgN/A
4:20 AM48 °FOvercast.6 mph76%30.36 "HgN/A
3:50 AM48 °FOvercast.6 mph82%30.36 "HgN/A
3:20 AM48 °FOvercast.7 mph82%30.36 "HgN/A
2:50 AM48 °FPassing clouds.8 mph82%30.36 "HgN/A
2:20 AM48 °FMostly cloudy.6 mph76%30.36 "HgN/A
1:50 AM46 °FOvercast.7 mph82%30.36 "HgN/A
1:20 AM46 °FPassing clouds.5 mph82%30.36 "HgN/A
Weather by CustomWeather, © 2015

See weather overviewHow to use our weather pages